[[{"header":{"parameterUnit":"m.s-1","parameterCategory":2,"la1":30.2991,"la2":30.254,"lo1":-89.0895,"lo2":-89.0444,"dy":0.0017,"dx":0.0017,"nx":28,"ny":28,"refTime":"2025-07-03T21:00:00:Z","depth":"0","parameterNumber":2,"parameterNumberName":"U-component_of_CURRENTS"},"data":[0,0,0,0,0,0,0,0,0,0,0,0,0,0,0,0,0,0,0,0,0,0,0,0,0,0,0,0,0,0,0,0,0,0,0,0,0,0,0,0,0,0,0,0,0,0,0,0,0,0,0,0,0,0,0,0,0,0,0.1732,0.1732,0,0.1725,0.1725,0.1725,0.1687,0.1686,0.1685,0.1684,0.1689,0.1689,0.169,0,0,0,0,0,0,0,0,0,0,0,0,0,0.1681,0.1683,0.1732,0.1732,0.1732,0.1725,0.1725,0.1725,0.1687,0.1686,0.1685,0.1684,0.1688,0.1689,0.1691,0,0,0,0,0,0,0,0,0,0,0,0,0,0.1692,0.1683,0.1732,0.1712,0.171,0.1725,0.1725,0.1725,0.1687,0.1686,0.1684,0.1683,0.1688,0.1689,0.1691,0.1727,0,0,0.1695,0.1696,0,0,0,0,0,0,0,0,0.1691,0.1694,0.1715,0.1714,0.1712,0.1705,0.1708,0.1726,0.1688,0.1696,0.1684,0.1683,0.1696,0.1697,0.1698,0.1727,0.1727,0.1695,0.1696,0.1697,0.1697,0,0,0,0,0,0,0,0.1691,0.1694,0.1729,0.1715,0.1713,0.1693,0.1693,0.1711,0.1704,0.1695,0.1692,0.1692,0.1695,0.1697,0.1698,0.1727,0.1695,0.1696,0.1697,0.1698,0.1807,0.1809,0,0,0,0,0,0,0.1695,0.1693,0.1729,0.1729,0.1698,0.1695,0.1695,0.1709,0.1703,0.1701,0.1693,0.169,0.1695,0.1697,0.1698,0.1772,0.1697,0.1698,0.1699,0.1805,0.1807,0.1809,0,0,0,0,0,0,0.1694,0.1699,0.173,0.171,0.1712,0.1698,0.1713,0.1709,0.1715,0.1702,0.17,0.1702,0.1694,0.1696,0.1728,0.177,0.1699,0.17,0.1802,0.1806,0.1808,0.1899,0,0,0,0,0,0,0.1693,0.1699,0.1714,0.1711,0.1714,0.1756,0.1714,0.171,0.1716,0.1713,0.1709,0.1708,0.1693,0.1726,0.173,0.1771,0.1701,0.18,0.1804,0.1807,0.1894,0.1905,0.1915,0,0,0,0,0,0.1692,0.1754,0.1715,0.1719,0.1734,0.1758,0.1759,0.1742,0.1718,0.1738,0.1731,0.1708,0.1752,0.1729,0.1733,0.1776,0.1798,0.1803,0.1807,0.1889,0.1903,0.1914,0,0,0,0,0,0,0.178,0.1755,0.1713,0.1772,0.1757,0.1752,0.1777,0.1753,0.1763,0.1757,0.1736,0.1736,0.1776,0.1769,0.1743,0.1818,0.1771,0.1777,0.1832,0.1845,0.1856,0.1889,0.1702,0,0,0,0,0,0.1791,0.1811,0.178,0.1828,0.1818,0.1789,0.1796,0.1778,0.1782,0.1783,0.1775,0.1778,0.18,0.1815,0.1823,0.1873,0.1908,0.1902,0.1913,0.1921,0.1952,0.2058,0.2082,0.1824,0.1824,0.1824,0,0,0.1849,0.183,0.1848,0.1842,0.1826,0.1847,0.1792,0.1813,0.1837,0.1786,0.1826,0.1812,0.1819,0.1866,0.1885,0.1866,0.201,0.1927,0.1935,0.1961,0.2066,0.2091,0.2114,0.1828,0.1827,0.1826,0,0,0.1962,0.1939,0.1974,0.1961,0.1931,0.1911,0.1917,0.1898,0.1892,0.1919,0.1892,0.1914,0.1931,0.1955,0.1969,0.205,0.2056,0.204,0.2131,0.2234,0.2257,0.2278,0.2344,0.2369,0.2053,0.2053,0.2054,0,0.2034,0.2044,0.1997,0.2017,0.2012,0.1944,0.1976,0.198,0.1976,0.1985,0.1945,0.1997,0.1986,0.2076,0.2092,0.2078,0.2123,0.208,0.2251,0.2272,0.2292,0.2354,0.2382,0.2058,0.2058,0.2057,0.2057,0,0.214,0.2145,0.2175,0.2154,0.2157,0.2176,0.2147,0.2152,0.2118,0.2113,0.2163,0.2155,0.2191,0.2186,0.2161,0.2292,0.2274,0.2246,0.2222,0.2324,0.2382,0.2409,0.2065,0.2064,0.2062,0.2061,0,0,0.2294,0.2254,0.2256,0.223,0.2212,0.2218,0.2267,0.2275,0.2299,0.2303,0.2356,0.2391,0.2371,0.2387,0.2366,0.2444,0.2595,0.2407,0.241,0.2479,0.2815,0.2783,0.2809,0.2604,0.2609,0.2614,0.2796,0,0.2372,0.24,0.2375,0.2406,0.2398,0.2358,0.2403,0.2411,0.2401,0.2438,0.2457,0.2491,0.2457,0.2459,0.255,0.256,0.2673,0.2548,0.2701,0.2706,0.2672,0.2842,0.2807,0.2966,0.2822,0.2827,0.283,0,0.2442,0.2438,0.2468,0.2448,0.2448,0.2478,0.2482,0.2516,0.2566,0.2563,0.263,0.2624,0.2729,0.2672,0.2848,0.2769,0.2827,0.2847,0.2854,0.282,0.2727,0.2844,0.302,0.2856,0.2871,0.2868,0.2865,0,0.2461,0.2489,0.2492,0.249,0.2489,0.2508,0.2518,0.2553,0.2561,0.2645,0.2654,0.2787,0.2809,0.2944,0.2974,0.2933,0.3151,0.3097,0.3148,0.3143,0.3143,0.313,0.3189,0.3292,0.3291,0.3291,0.329,0,0.2495,0.2496,0.2497,0.2489,0.2506,0.2518,0.2542,0.2572,0.2622,0.2644,0.2719,0.276,0.2879,0.2983,0.3055,0.3185,0.324,0.3222,0.3221,0.3168,0.3156,0.3031,0.291,0.3298,0.3296,0.3295,0.3294,0,0.2473,0.2479,0.2473,0.2489,0.2494,0.2498,0.2512,0.2531,0.2591,0.2626,0.2654,0.276,0.29,0.3021,0.32,0.3254,0.3301,0.3427,0.3333,0.332,0.3197,0.3082,0.309,0.3044,0.3543,0.3544,0.3545,0,0.2448,0.2444,0.2446,0.2435,0.2432,0.2441,0.2442,0.2498,0.2512,0.2612,0.2629,0.2774,0.286,0.3119,0.3276,0.3471,0.3325,0.3524,0.3455,0.3242,0.3114,0.295,0.2899,0.3486,0.3487,0.3487,0.3487,0,0.2395,0.2397,0.2385,0.2367,0.236,0.236,0.2375,0.2383,0.2453,0.2495,0.2574,0.2661,0.2914,0.3077,0.3321,0.345,0.3336,0.353,0.3368,0.3148,0.2922,0.2858,0.3267,0.3488,0.3488,0.3488,0.3488,0.3488,0.234,0.232,0.2304,0.2284,0.2279,0.2281,0.2267,0.2295,0.2322,0.237,0.2487,0.2586,0.2833,0.3177,0.33,0.3411,0.3338,0.3351,0.3255,0.3127,0.301,0.3401,0.3568,0.3569,0.3569,0.3569,0.3569,0,0.2263,0.2248,0.2223,0.2196,0.2172,0.2202,0.2213,0.2198,0.2206,0.2274,0.2336,0.2532,0.2738,0.2967,0.3183,0.3124,0.3084,0.303,0.2794,0.2784,0.3214,0.3134,0.3143,0.3143,0.3143,0.3143,0.3144,0.3144,0.2219,0.2169,0.2161,0.2097,0.2085,0.2053,0.2056,0.2051,0.2084,0.2108,0.2167,0.2259,0.2479,0.2645,0.2723,0.2741,0.2532,0.2453,0.2388,0.2647,0.2668,0.2687,0.2587,0.248,0.2479,0.1955,0.195,0.1946]},{"header":{"parameterUnit":"m.s-1","parameterCategory":2,"la1":30.2991,"la2":30.254,"lo1":-89.0895,"lo2":-89.0444,"dy":0.0017,"dx":0.0017,"nx":28,"ny":28,"refTime":"2025-07-03T21:00:00:Z","depth":"0","parameterNumber":3,"parameterNumberName":"V-component_of_CURRENTS"},"data":[0,0,0,0,0,0,0,0,0,0,0,0,0,0,0,0,0,0,0,0,0,0,0,0,0,0,0,0,0,0,0,0,0,0,0,0,0,0,0,0,0,0,0,0,0,0,0,0,0,0,0,0,0,0,0,0,0,0,0.0325,0.0324,0,0.0245,0.0244,0.0243,0.0173,0.0173,0.0172,0.0171,0.0052,0.005,0.0047,0,0,0,0,0,0,0,0,0,0,0,0,0,0.0392,0.0391,0.0325,0.0324,0.0323,0.0245,0.0244,0.0243,0.0174,0.0173,0.0172,0.0171,0.0053,0.005,0.0047,0,0,0,0,0,0,0,0,0,0,0,0,0,0.0342,0.0391,0.0325,0.028,0.0275,0.0245,0.0244,0.0242,0.0174,0.0173,0.0172,0.0171,0.0054,0.005,0.0047,0.0045,0,0,0.0035,0.0034,0,0,0,0,0,0,0,0,0.0345,0.0339,0.0288,0.0283,0.0278,0.0219,0.0224,0.0175,0.0174,0.0211,0.0171,0.017,0.0106,0.0098,0.0084,0.004,0.0035,0.0035,0.0033,0.0031,0.003,0,0,0,0,0,0,0,0.0348,0.0342,0.0293,0.0287,0.0281,0.0254,0.0246,0.0214,0.0164,0.0208,0.0203,0.0196,0.0102,0.0088,0.0081,0.0033,0.0035,0.0032,0.0029,0.0028,-0.0026,-0.0025,0,0,0,0,0,0,0.0362,0.0346,0.0295,0.029,0.031,0.0254,0.0245,0.0238,0.0165,0.0154,0.0197,0.0193,0.0095,0.0085,0.0077,0.0074,0.0031,0.0028,0.0025,-0.0027,-0.0026,-0.0025,0,0,0,0,0,0,0.0364,0.0358,0.0299,0.0317,0.0307,0.0254,0.0247,0.0237,0.0222,0.0157,0.0144,0.0191,0.0094,0.0082,0.0054,0.0069,0.0026,0.0023,-0.0028,-0.0027,-0.0025,0.0067,0,0,0,0,0,0,0.0366,0.036,0.036,0.0318,0.0307,0.0288,0.0248,0.0236,0.0219,0.0213,0.0149,0.0136,0.0092,0.006,0.005,0.0063,0.002,-0.0029,-0.0027,-0.0026,0.0063,0.0071,0.0078,0,0,0,0,0,0.0369,0.0368,0.0361,0.0355,0.0309,0.0289,0.0282,0.0239,0.022,0.022,0.0178,0.0138,0.0062,0.0058,0.0046,0.0058,-0.003,-0.0028,-0.0026,0.0059,0.007,0.0078,0,0,0,0,0,0,0.039,0.0359,0.0351,0.0339,0.0323,0.0278,0.0268,0.0249,0.0216,0.0206,0.0148,0.0133,0.0113,0.0076,0.0073,0.0047,0.001,0.001,0.0079,0.0088,0.0096,0.0118,0.0016,0,0,0,0,0,0.04,0.0392,0.0366,0.0358,0.0353,0.0317,0.0303,0.0281,0.0246,0.023,0.0189,0.0145,0.0113,0.0094,0.0057,0.0046,0.0029,0.0046,0.0054,0.0061,0.0072,0.007,0.0079,-0.0019,-0.0019,-0.0019,0,0,0.0403,0.0387,0.0381,0.0363,0.0343,0.0337,0.0305,0.029,0.0286,0.0223,0.0204,0.017,0.0116,0.01,0.0089,0.0071,0.0081,0.0063,0.0069,0.0076,0.0073,0.0083,0.0091,-0.0018,-0.0018,-0.0018,0,0,0.0405,0.0398,0.0393,0.0386,0.0368,0.0353,0.0355,0.0324,0.0312,0.0296,0.0252,0.0236,0.0178,0.0155,0.0131,0.0163,0.0121,0.0145,0.0202,0.0201,0.021,0.0217,0.0215,0.0222,0.015,0.015,0.015,0,0.0411,0.0405,0.039,0.0387,0.0386,0.0365,0.0369,0.0355,0.0321,0.0325,0.0299,0.0251,0.0206,0.0201,0.0209,0.0181,0.0172,0.0172,0.0213,0.022,0.0226,0.0222,0.0228,0.0155,0.0154,0.0154,0.0154,0,0.0409,0.0411,0.0409,0.0404,0.0404,0.0405,0.0394,0.0398,0.0386,0.0375,0.0375,0.033,0.0305,0.0291,0.0254,0.0277,0.0255,0.0224,0.0195,0.0242,0.0234,0.0239,0.0162,0.016,0.0159,0.0157,0,0,0.0409,0.0409,0.041,0.042,0.0418,0.0418,0.043,0.0442,0.0458,0.0439,0.0462,0.0422,0.0414,0.0389,0.0355,0.0356,0.0387,0.0314,0.0311,0.0321,0.0389,0.036,0.0361,0.0364,0.0366,0.0366,0.037,0,0.0417,0.0423,0.0424,0.0442,0.0448,0.0455,0.0472,0.0481,0.0486,0.0504,0.0489,0.0484,0.0446,0.044,0.0442,0.0396,0.0402,0.0389,0.0334,0.0332,0.0308,0.0366,0.0393,0.0397,0.0374,0.0375,0.0375,0,0.0415,0.0425,0.0439,0.0474,0.048,0.049,0.0532,0.0544,0.057,0.0575,0.0589,0.057,0.0577,0.0531,0.0509,0.0502,0.0459,0.0426,0.0424,0.0368,0.0311,0.0344,0.0405,0.0347,0.0381,0.0381,0.0381,0,0.0415,0.044,0.0457,0.0464,0.0492,0.0514,0.0536,0.0566,0.0585,0.0622,0.0637,0.0648,0.0639,0.0611,0.0545,0.0529,0.0515,0.0477,0.0416,0.0412,0.041,0.0405,0.0417,0.0468,0.0468,0.0468,0.0468,0,0.0417,0.043,0.046,0.0465,0.0501,0.0524,0.0566,0.059,0.0631,0.0658,0.0672,0.0691,0.0657,0.064,0.0584,0.0522,0.0546,0.0444,0.0419,0.0442,0.044,0.0365,0.0301,0.0468,0.0468,0.0468,0.0468,0,0.039,0.0411,0.043,0.0474,0.0492,0.0511,0.0566,0.0598,0.064,0.0677,0.0689,0.072,0.0709,0.0671,0.062,0.0558,0.046,0.0471,0.0502,0.048,0.0361,0.03,0.0228,0.0189,0.0417,0.0417,0.0416,0,0.0367,0.0375,0.042,0.0438,0.0454,0.0495,0.0526,0.0583,0.0616,0.0688,0.0704,0.0723,0.074,0.0679,0.0596,0.0524,0.0438,0.0471,0.044,0.0378,0.0292,0.0227,0.0195,0.0477,0.0477,0.0477,0.0477,0,0.0327,0.0345,0.0365,0.0404,0.0437,0.0479,0.053,0.0558,0.0629,0.0674,0.0731,0.0761,0.0729,0.0701,0.0608,0.0536,0.0414,0.0466,0.0405,0.0349,0.0277,0.0221,0.0444,0.0477,0.0477,0.0477,0.0477,0.0477,0.0293,0.0301,0.0337,0.0372,0.0414,0.0467,0.0499,0.0564,0.0625,0.0719,0.0748,0.0843,0.0817,0.0711,0.0585,0.0423,0.0377,0.0377,0.0313,0.0257,0.0209,0.0428,0.0422,0.0422,0.0421,0.0421,0.0421,0,0.0256,0.028,0.031,0.0361,0.04,0.0435,0.0506,0.0551,0.0622,0.0752,0.0825,0.0952,0.085,0.0737,0.0527,0.0343,0.025,0.0241,0.018,0.0158,0.0376,0.037,0.035,0.035,0.035,0.035,0.035,0.035,0.024,0.0257,0.0281,0.0337,0.0377,0.0432,0.047,0.055,0.0658,0.0846,0.1,0.1125,0.116,0.0668,0.0346,0.0236,0.0077,0.0018,-0.0064,0.0115,0.0124,0.0132,0.0115,0.0042,0.0041,-0.0235,-0.0237,-0.0239]}],[{"header":{"parameterUnit":"m.s-1","parameterCategory":2,"la1":30.2991,"la2":30.254,"lo1":-89.0895,"lo2":-89.0444,"dy":0.0017,"dx":0.0017,"nx":28,"ny":28,"refTime":"2025-07-03T21:00:00:Z","depth":"2","parameterNumber":2,"parameterNumberName":"U-component_of_CURRENTS"},"data":[0,0,0,0,0,0,0,0,0,0,0,0,0,0,0,0,0,0,0,0,0,0,0,0,0,0,0,0,0,0,0,0,0,0,0,0,0,0,0,0,0,0,0,0,0,0,0,0,0,0,0,0,0,0,0,0,0,0,0.1022,0.1022,0,0.1033,0.1034,0.1034,0.1026,0.1026,0.1026,0.1025,0.1019,0.1019,0.1019,0,0,0,0,0,0,0,0,0,0,0,0,0,0.1008,0.1008,0.1022,0.1022,0.1022,0.1033,0.1034,0.1034,0.1026,0.1026,0.1026,0.1025,0.1019,0.1019,0.1019,0,0,0,0,0,0,0,0,0,0,0,0,0,0.1015,0.1008,0.1022,0.1021,0.1021,0.1033,0.1034,0.1034,0.1026,0.1026,0.1026,0.1025,0.1019,0.1019,0.1019,0.1026,0,0,0.1019,0.1019,0,0,0,0,0,0,0,0,0.1015,0.1015,0.1021,0.1021,0.1021,0.1029,0.1026,0.103,0.1026,0.1023,0.1025,0.1025,0.1021,0.1021,0.1023,0.1025,0.1025,0.1019,0.1019,0.1019,0.1019,0,0,0,0,0,0,0,0.1014,0.1015,0.1025,0.1021,0.1021,0.1025,0.1026,0.1027,0.1023,0.1023,0.1023,0.1027,0.1021,0.1023,0.1022,0.1025,0.1019,0.1019,0.1019,0.1019,0.108,0.1082,0,0,0,0,0,0,0.1015,0.1015,0.1025,0.1026,0.1019,0.1026,0.1026,0.1026,0.1023,0.1023,0.1027,0.1026,0.1023,0.1022,0.1022,0.1077,0.1019,0.1019,0.1019,0.1079,0.1081,0.1083,0,0,0,0,0,0,0.1015,0.1016,0.1024,0.1022,0.1023,0.1026,0.1026,0.1026,0.104,0.1026,0.1025,0.1042,0.1022,0.1022,0.1044,0.1075,0.1019,0.1019,0.1077,0.1079,0.1082,0.1157,0,0,0,0,0,0,0.1014,0.1015,0.1019,0.1022,0.1023,0.1038,0.1027,0.1027,0.1042,0.1042,0.1038,0.1037,0.1022,0.1045,0.1044,0.1074,0.1019,0.1075,0.1078,0.1081,0.1152,0.1161,0.1169,0,0,0,0,0,0.1014,0.1007,0.1019,0.1021,0.1027,0.1038,0.104,0.104,0.1044,0.1051,0.1059,0.1037,0.1063,0.1046,0.1045,0.1076,0.1073,0.1077,0.1081,0.1148,0.116,0.1169,0,0,0,0,0,0,0.0997,0.1007,0.1019,0.1016,0.1035,0.1038,0.104,0.1052,0.1065,0.1067,0.1058,0.1057,0.109,0.1074,0.1055,0.1103,0.1065,0.1069,0.1117,0.1127,0.1136,0.1119,0.1019,0,0,0,0,0,0.0999,0.1,0.1018,0.1019,0.1028,0.1043,0.105,0.1058,0.1068,0.1073,0.1078,0.1086,0.1103,0.1108,0.1114,0.1138,0.1133,0.1158,0.1166,0.1174,0.1161,0.1193,0.1203,0.1095,0.1094,0.1094,0,0,0.0991,0.0999,0.0999,0.1017,0.1028,0.1039,0.1046,0.1061,0.1077,0.1071,0.1096,0.1117,0.1117,0.1149,0.1162,0.114,0.1208,0.1178,0.1185,0.1168,0.1198,0.1208,0.1218,0.1097,0.1097,0.1096,0,0,0.0971,0.0988,0.0983,0.1002,0.1028,0.1042,0.1054,0.1077,0.1095,0.1129,0.1137,0.1176,0.119,0.1205,0.1212,0.127,0.1255,0.128,0.1306,0.1339,0.1347,0.1355,0.1384,0.1393,0.128,0.1281,0.1281,0,0.0964,0.0963,0.0986,0.0991,0.1006,0.1046,0.1054,0.108,0.1113,0.1137,0.1141,0.1206,0.1213,0.1259,0.1286,0.1288,0.1303,0.1268,0.1349,0.1357,0.1363,0.139,0.14,0.1285,0.1284,0.1284,0.1283,0,0.0941,0.0951,0.0951,0.0975,0.0997,0.1012,0.1055,0.109,0.1127,0.1157,0.1224,0.1254,0.1291,0.1314,0.1317,0.1378,0.1374,0.1361,0.1322,0.1379,0.1404,0.1412,0.129,0.1289,0.1288,0.1287,0,0,0.0904,0.0928,0.0933,0.0947,0.0993,0.1008,0.1051,0.1102,0.1139,0.1196,0.1246,0.1307,0.1344,0.1354,0.1383,0.1416,0.1493,0.1413,0.1413,0.1438,0.1572,0.1556,0.1564,0.1501,0.1503,0.1504,0.1579,0,0.0886,0.0886,0.091,0.093,0.0941,0.0998,0.1034,0.1091,0.1151,0.1212,0.1277,0.1333,0.1354,0.1392,0.1434,0.1477,0.1515,0.1473,0.1514,0.1515,0.1492,0.1573,0.1288,0.1329,0.1587,0.1588,0.1589,0,0.0864,0.087,0.0876,0.0919,0.093,0.0954,0.1032,0.1071,0.1168,0.1218,0.1298,0.1349,0.1432,0.1433,0.1535,0.1512,0.1547,0.1572,0.1575,0.1532,0.1515,0.1309,0.1334,0.1603,0.1602,0.1601,0.16,0,0.0834,0.0854,0.0859,0.0872,0.0922,0.0949,0.0989,0.1077,0.1126,0.1232,0.1286,0.138,0.1448,0.1502,0.1588,0.1564,0.1689,0.1655,0.167,0.1669,0.1416,0.139,0.1712,0.1712,0.1712,0.1712,0.1711,0,0.0811,0.0821,0.0846,0.0853,0.0878,0.0927,0.0979,0.1039,0.1131,0.1202,0.1293,0.1372,0.1471,0.1563,0.1606,0.1686,0.1711,0.1687,0.1693,0.1438,0.1415,0.163,0.162,0.1714,0.1714,0.1713,0.1713,0,0.0784,0.0799,0.0808,0.0848,0.0865,0.0888,0.0967,0.1011,0.1103,0.1201,0.124,0.1386,0.1517,0.1612,0.1718,0.1717,0.1779,0.1795,0.1499,0.1469,0.1724,0.1717,0.1798,0.1798,0.1798,0.1798,0.1798,0,0.0768,0.0765,0.0795,0.0807,0.0828,0.0869,0.0906,0.0994,0.1051,0.1214,0.1263,0.1422,0.1531,0.1688,0.168,0.1739,0.1837,0.1543,0.1439,0.1738,0.1736,0.1728,0.1721,0.1134,0.1129,0.1125,0.1121,0,0.0738,0.0748,0.0755,0.0777,0.0808,0.0838,0.0901,0.0935,0.1056,0.1145,0.1282,0.1373,0.1497,0.1447,0.1533,0.1518,0.1506,0.146,0.1842,0.1176,0.1124,0.1119,0.1131,0.1082,0.1086,0.1089,0.1091,0.1093,0.0719,0.0715,0.0727,0.0748,0.0775,0.0806,0.0824,0.0897,0.0975,0.1081,0.1204,0.126,0.1207,0.1205,0.1234,0.1243,0.1325,0.1221,0.1228,0.1242,0.1171,0.1124,0.1069,0.1073,0.1076,0.1079,0.1081,0,0.0705,0.0705,0.0705,0.0723,0.0728,0.077,0.082,0.082,0.0888,0.0972,0.1059,0.0882,0.0845,0.091,0.082,0.0835,0.0775,0.0847,0.0711,0.0743,0.0773,0.0677,0.0446,0.0446,0.0446,0.0447,0,0,0.0701,0.0693,0.0685,0.0674,0.0691,0.07,0.072,0.0718,0.0744,0.0741,0.0733,0.0741,0.0759,0.0561,0.0521,0.051,0.0646,0.0483,0.0948,0.081,0.0843,0.09,0.0777,0,0,0,0,0]},{"header":{"parameterUnit":"m.s-1","parameterCategory":2,"la1":30.2991,"la2":30.254,"lo1":-89.0895,"lo2":-89.0444,"dy":0.0017,"dx":0.0017,"nx":28,"ny":28,"refTime":"2025-07-03T21:00:00:Z","depth":"2","parameterNumber":3,"parameterNumberName":"V-component_of_CURRENTS"},"data":[0,0,0,0,0,0,0,0,0,0,0,0,0,0,0,0,0,0,0,0,0,0,0,0,0,0,0,0,0,0,0,0,0,0,0,0,0,0,0,0,0,0,0,0,0,0,0,0,0,0,0,0,0,0,0,0,0,0,-0.0005,-0.0005,0,-0.006,-0.006,-0.0061,-0.008,-0.008,-0.008,-0.0079,-0.0178,-0.0181,-0.0184,0,0,0,0,0,0,0,0,0,0,0,0,0,0.0064,0.0063,-0.0005,-0.0005,-0.0006,-0.006,-0.006,-0.0061,-0.008,-0.008,-0.008,-0.0079,-0.0177,-0.018,-0.0184,0,0,0,0,0,0,0,0,0,0,0,0,0,0.0023,0.0062,-0.0004,-0.0021,-0.0023,-0.0059,-0.006,-0.0062,-0.008,-0.008,-0.0079,-0.0079,-0.0176,-0.018,-0.0184,-0.022,0,0,-0.0198,-0.02,0,0,0,0,0,0,0,0,0.0026,0.0021,-0.0018,-0.002,-0.0022,-0.0062,-0.0072,-0.0116,-0.008,-0.006,-0.0079,-0.0079,-0.0143,-0.015,-0.0162,-0.0225,-0.0229,-0.0198,-0.0201,-0.0203,-0.0204,0,0,0,0,0,0,0,0.0028,0.0023,-0.0027,-0.0019,-0.0021,-0.0033,-0.0038,-0.0081,-0.0105,-0.0061,-0.0063,-0.0067,-0.0144,-0.0158,-0.0165,-0.0231,-0.0198,-0.0202,-0.0205,-0.0206,-0.0338,-0.0339,0,0,0,0,0,0,0.0037,0.0025,-0.0026,-0.0029,0.0004,-0.0034,-0.004,-0.005,-0.0103,-0.011,-0.0068,-0.0068,-0.0151,-0.0159,-0.0168,-0.0204,-0.0203,-0.0207,-0.0209,-0.0337,-0.0339,-0.034,0,0,0,0,0,0,0.0039,0.0033,-0.0023,-0.0002,-0.001,-0.0035,-0.0047,-0.0052,-0.0059,-0.0107,-0.0115,-0.0069,-0.0151,-0.0162,-0.0207,-0.0208,-0.0209,-0.0213,-0.0336,-0.0338,-0.0339,-0.0283,0,0,0,0,0,0,0.0041,0.0034,0.003,-0.0001,-0.001,-0.0042,-0.0048,-0.0053,-0.0063,-0.0063,-0.0112,-0.0121,-0.0151,-0.02,-0.0211,-0.0214,-0.0216,-0.0335,-0.0337,-0.0339,-0.0283,-0.0282,-0.028,0,0,0,0,0,0.0044,0.0029,0.003,0.0024,-0.0016,-0.0042,-0.0048,-0.0065,-0.0063,-0.0069,-0.0103,-0.0119,-0.0218,-0.0204,-0.0217,-0.0222,-0.0334,-0.0337,-0.0338,-0.0284,-0.0282,-0.0281,0,0,0,0,0,0,0.0048,0.0025,0.0025,0.0003,-0.0013,-0.0045,-0.0056,-0.0061,-0.0092,-0.0092,-0.0132,-0.0144,-0.0183,-0.0217,-0.02,-0.0268,-0.0279,-0.0284,-0.0233,-0.0232,-0.0231,-0.021,-0.022,0,0,0,0,0,0.0051,0.0038,0.0017,-0.0,-0.0007,-0.0026,-0.0038,-0.0046,-0.0076,-0.0088,-0.0118,-0.016,-0.0204,-0.0227,-0.0269,-0.0308,-0.0333,-0.0321,-0.032,-0.0318,-0.0312,-0.0364,-0.0366,-0.0346,-0.0346,-0.0346,0,0,0.0046,0.0033,0.0025,0.0002,-0.0013,-0.0022,-0.0033,-0.0049,-0.0055,-0.0096,-0.0118,-0.0156,-0.0214,-0.0253,-0.0274,-0.0279,-0.0335,-0.0321,-0.0319,-0.0314,-0.0366,-0.0368,-0.0369,-0.0347,-0.0347,-0.0347,0,0,0.0037,0.0023,0.0016,0.0007,-0.0007,-0.002,-0.002,-0.0043,-0.0051,-0.0078,-0.011,-0.0146,-0.0209,-0.0247,-0.0276,-0.0297,-0.0325,-0.0313,-0.0289,-0.0339,-0.0341,-0.0342,-0.0358,-0.0361,-0.0313,-0.0313,-0.0313,0,0.0035,0.003,0.0009,0.0005,0.0005,-0.0015,-0.0012,-0.0033,-0.0065,-0.0071,-0.0079,-0.0163,-0.0205,-0.0258,-0.0262,-0.0291,-0.0314,-0.0285,-0.0335,-0.0337,-0.034,-0.0355,-0.036,-0.031,-0.0311,-0.0311,-0.0311,0,0.0028,0.0029,0.0023,0.0018,0.0009,0.0006,-0.0014,-0.0023,-0.0031,-0.0047,-0.0087,-0.0146,-0.0191,-0.0215,-0.0244,-0.0286,-0.0292,-0.0322,-0.033,-0.0338,-0.0354,-0.036,-0.0307,-0.0308,-0.0308,-0.0309,0,0,0.002,0.0022,0.0022,0.0043,0.0025,0.0024,0.0006,-0.0006,-0.0002,-0.0044,-0.0049,-0.0126,-0.0144,-0.0179,-0.0223,-0.0267,-0.0297,-0.0295,-0.0299,-0.0293,-0.0383,-0.0318,-0.0318,-0.0336,-0.0337,-0.0338,-0.0379,0,0.0032,0.0049,0.0037,0.0058,0.0075,0.0056,0.0048,0.0031,0.0013,-0.0,-0.0064,-0.0091,-0.0137,-0.0148,-0.0202,-0.0275,-0.0313,-0.0281,-0.0391,-0.0394,-0.0322,-0.0323,-0.0296,-0.0324,-0.0385,-0.0386,-0.0386,0,0.0042,0.0058,0.0085,0.0115,0.0118,0.0117,0.0125,0.0115,0.0075,0.0062,0.0016,-0.0025,-0.0092,-0.0127,-0.0254,-0.0231,-0.0296,-0.0355,-0.0359,-0.0321,-0.034,-0.0333,-0.0333,-0.0396,-0.0395,-0.0395,-0.0394,0,0.0082,0.01,0.0133,0.0139,0.0151,0.0158,0.0159,0.0135,0.0145,0.0102,0.011,0.0015,-0.0011,-0.0128,-0.0228,-0.0247,-0.0354,-0.0402,-0.0406,-0.0401,-0.041,-0.0403,-0.0488,-0.0488,-0.0488,-0.0488,-0.0488,0,0.0118,0.0147,0.0156,0.0177,0.0218,0.0206,0.0235,0.0221,0.0211,0.0233,0.015,0.0153,-0.0012,-0.0085,-0.0205,-0.03,-0.0339,-0.0391,-0.041,-0.0387,-0.0378,-0.0474,-0.0472,-0.049,-0.0489,-0.0489,-0.0489,0,0.0164,0.0169,0.0212,0.0231,0.0241,0.0269,0.0296,0.0319,0.03,0.0326,0.0321,0.0256,0.0172,0.0025,-0.0144,-0.0239,-0.036,-0.0384,-0.0318,-0.0328,-0.0382,-0.0377,-0.0407,-0.0405,-0.0404,-0.0402,-0.0401,0,0.0194,0.022,0.0254,0.0283,0.0293,0.0329,0.0359,0.036,0.039,0.0399,0.0423,0.0367,0.0345,0.0145,-0.0028,-0.0203,-0.0282,-0.0301,-0.0338,-0.0359,-0.0375,-0.0373,-0.037,-0.0331,-0.033,-0.0328,-0.0327,0,0.0253,0.0257,0.0289,0.0344,0.0383,0.0434,0.0477,0.0517,0.0529,0.0566,0.0605,0.0593,0.0439,0.0268,0.0052,-0.0061,-0.0273,-0.0275,-0.0341,-0.0336,-0.0286,-0.0301,-0.0302,-0.0316,-0.0317,-0.0318,-0.0318,-0.0319,0.029,0.0323,0.0359,0.0411,0.0463,0.0535,0.0591,0.0647,0.0724,0.0785,0.0753,0.0698,0.0454,0.0185,0.0043,-0.0104,-0.0129,-0.0253,-0.0259,-0.0266,-0.0229,-0.0177,-0.0178,-0.0179,-0.0179,-0.0179,-0.018,0,0.0336,0.0372,0.0428,0.0497,0.0566,0.0576,0.0671,0.074,0.0851,0.0859,0.0899,0.0615,0.0448,0.0203,0.0013,-0.0112,-0.013,-0.0166,-0.0208,-0.0217,-0.0226,-0.019,-0.0129,-0.0129,-0.0129,-0.0129,0,0,0.0366,0.0424,0.0452,0.0573,0.0623,0.0731,0.0791,0.0902,0.0928,0.0923,0.083,0.0734,0.0404,0.022,0.0064,-0.0022,-0.0072,-0.0016,-0.0042,-0.0077,-0.0084,-0.0261,-0.0212,0,0,0,0,0]}],[{"header":{"parameterUnit":"m.s-1","parameterCategory":2,"la1":30.2991,"la2":30.254,"lo1":-89.0895,"lo2":-89.0444,"dy":0.0017,"dx":0.0017,"nx":28,"ny":28,"refTime":"2025-07-03T21:00:00:Z","depth":"4","parameterNumber":2,"parameterNumberName":"U-component_of_CURRENTS"},"data":[0,0,0,0,0,0,0,0,0,0,0,0,0,0,0,0,0,0,0,0,0,0,0,0,0,0,0,0,0,0,0,0,0,0,0,0,0,0,0,0,0,0,0,0,0,0,0,0,0,0,0,0,0,0,0,0,0,0,-0.0324,-0.0324,0,-0.03,-0.03,-0.03,-0.0242,-0.0241,-0.0239,-0.0238,-0.0201,-0.0201,-0.0202,0,0,0,0,0,0,0,0,0,0,0,0,0,-0.0334,-0.0334,-0.0324,-0.0324,-0.0324,-0.03,-0.03,-0.03,-0.0242,-0.0241,-0.0239,-0.0238,-0.0201,-0.0201,-0.0202,0,0,0,0,0,0,0,0,0,0,0,0,0,-0.0322,-0.0334,-0.0325,-0.0292,-0.0289,-0.03,-0.03,-0.03,-0.0242,-0.0241,-0.0239,-0.0237,-0.0201,-0.0201,-0.0202,-0.0241,0,0,-0.0202,-0.0202,0,0,0,0,0,0,0,0,-0.0323,-0.0322,-0.0297,-0.0294,-0.0291,-0.0272,-0.029,-0.0279,-0.0243,-0.0261,-0.0238,-0.0236,-0.0225,-0.0223,-0.0223,-0.0239,-0.0238,-0.0202,-0.0203,-0.0203,-0.0203,0,0,0,0,0,0,0,-0.0324,-0.0323,-0.0315,-0.0297,-0.0293,-0.0283,-0.0279,-0.0288,-0.0254,-0.0259,-0.0254,-0.0252,-0.0223,-0.0223,-0.0222,-0.0237,-0.0202,-0.0203,-0.0203,-0.0203,-0.0235,-0.0236,0,0,0,0,0,0,-0.0328,-0.0324,-0.0316,-0.0315,-0.0302,-0.0284,-0.028,-0.028,-0.0254,-0.0248,-0.0253,-0.0249,-0.0224,-0.0222,-0.0221,-0.0207,-0.0203,-0.0203,-0.0203,-0.0235,-0.0235,-0.0236,0,0,0,0,0,0,-0.0328,-0.0327,-0.0317,-0.0318,-0.0316,-0.0286,-0.0287,-0.0281,-0.026,-0.0249,-0.0243,-0.0236,-0.0222,-0.022,-0.0217,-0.0207,-0.0203,-0.0203,-0.0234,-0.0235,-0.0236,-0.0217,0,0,0,0,0,0,-0.0328,-0.0328,-0.0327,-0.0318,-0.0316,-0.0317,-0.0288,-0.0281,-0.0263,-0.0256,-0.0234,-0.0229,-0.0221,-0.0217,-0.0218,-0.0207,-0.0204,-0.0233,-0.0234,-0.0235,-0.0216,-0.0217,-0.0217,0,0,0,0,0,-0.0329,-0.0335,-0.0327,-0.0326,-0.0317,-0.0317,-0.0315,-0.0288,-0.0263,-0.0261,-0.0245,-0.0229,-0.0225,-0.0218,-0.0219,-0.0208,-0.0232,-0.0234,-0.0235,-0.0216,-0.0217,-0.0217,0,0,0,0,0,0,-0.0334,-0.033,-0.0321,-0.0323,-0.0318,-0.0307,-0.03,-0.0285,-0.0271,-0.0254,-0.0241,-0.0237,-0.0232,-0.0233,-0.0225,-0.0224,-0.0226,-0.0227,-0.0211,-0.0212,-0.0212,-0.0188,-0.0204,0,0,0,0,0,-0.0339,-0.0342,-0.0336,-0.0336,-0.0332,-0.0315,-0.0309,-0.029,-0.0279,-0.0268,-0.0252,-0.0242,-0.0246,-0.0236,-0.0241,-0.0242,-0.0239,-0.0237,-0.0238,-0.0238,-0.0221,-0.0231,-0.023,-0.0241,-0.0241,-0.0241,0,0,-0.034,-0.0338,-0.0338,-0.0338,-0.0327,-0.032,-0.0306,-0.0291,-0.0281,-0.027,-0.0246,-0.0246,-0.025,-0.0248,-0.0245,-0.0239,-0.0233,-0.024,-0.024,-0.0223,-0.0233,-0.0231,-0.023,-0.0242,-0.0242,-0.0242,0,0,-0.0338,-0.0342,-0.0337,-0.0334,-0.0319,-0.0316,-0.0309,-0.0291,-0.0277,-0.0267,-0.0257,-0.0254,-0.0247,-0.0249,-0.025,-0.0262,-0.0242,-0.0258,-0.0229,-0.024,-0.0238,-0.0237,-0.0224,-0.0222,-0.025,-0.025,-0.025,0,-0.0335,-0.0327,-0.0336,-0.0326,-0.0315,-0.0312,-0.0294,-0.0295,-0.0276,-0.0266,-0.0253,-0.0246,-0.025,-0.0252,-0.0244,-0.0261,-0.0249,-0.0222,-0.0238,-0.0236,-0.0235,-0.0223,-0.022,-0.0249,-0.0249,-0.0249,-0.0249,0,-0.0321,-0.0314,-0.031,-0.0298,-0.0297,-0.0282,-0.0283,-0.0275,-0.0255,-0.0248,-0.0238,-0.0246,-0.0229,-0.0242,-0.0237,-0.0232,-0.022,-0.0242,-0.0229,-0.0232,-0.022,-0.0218,-0.0248,-0.0248,-0.0249,-0.0249,0,0,-0.0312,-0.0299,-0.0297,-0.0279,-0.0273,-0.0268,-0.0264,-0.0255,-0.024,-0.0231,-0.021,-0.0219,-0.0201,-0.0202,-0.0207,-0.0213,-0.0196,-0.0205,-0.0206,-0.0179,-0.0188,-0.0203,-0.0202,-0.021,-0.021,-0.021,-0.0179,0,-0.0288,-0.0263,-0.0266,-0.0241,-0.0222,-0.0225,-0.0222,-0.0219,-0.0213,-0.0201,-0.0211,-0.0192,-0.0195,-0.017,-0.0179,-0.02,-0.0189,-0.0201,-0.02,-0.0199,-0.0202,-0.02,-0.0209,-0.0178,-0.0177,-0.0177,-0.0177,0,-0.0269,-0.025,-0.0215,-0.0196,-0.0188,-0.0172,-0.0157,-0.0153,-0.0157,-0.0147,-0.0134,-0.0135,-0.0131,-0.0138,-0.0151,-0.0149,-0.0147,-0.0168,-0.0169,-0.0183,-0.021,-0.0178,-0.0173,-0.0173,-0.0173,-0.0173,-0.0174,0,-0.025,-0.0221,-0.0186,-0.0177,-0.0156,-0.0132,-0.012,-0.012,-0.0117,-0.0096,-0.0088,-0.0087,-0.008,-0.0089,-0.0123,-0.0115,-0.0154,-0.0159,-0.017,-0.017,-0.0173,-0.0175,-0.0154,-0.0154,-0.0154,-0.0154,-0.0154,0,-0.0226,-0.0207,-0.0164,-0.0143,-0.0099,-0.0092,-0.0058,-0.005,-0.0045,-0.0055,-0.0039,-0.0068,-0.0064,-0.0096,-0.0111,-0.0141,-0.014,-0.0152,-0.0165,-0.0166,-0.0168,-0.017,-0.0173,-0.0153,-0.0153,-0.0153,-0.0153,0,-0.0224,-0.0197,-0.0157,-0.0107,-0.0086,-0.0052,-0.002,-0.0013,0.0004,-0.0009,0.0006,-0.0034,-0.0073,-0.0092,-0.0126,-0.0128,-0.016,-0.0168,-0.0156,-0.0171,-0.0158,-0.016,-0.0143,-0.0143,-0.0143,-0.0143,-0.0144,0,-0.0221,-0.0196,-0.0131,-0.0101,-0.0069,-0.002,-0.0003,0.0019,0.0009,-0.0026,-0.0051,-0.0071,-0.0102,-0.015,-0.0183,-0.0184,-0.0192,-0.0166,-0.0155,-0.0143,-0.0157,-0.0159,-0.016,-0.0144,-0.0144,-0.0144,-0.0144,0,-0.0219,-0.0195,-0.0164,-0.0095,-0.0052,-0.0025,0.0,0.0003,-0.0005,-0.0003,-0.0068,-0.0084,-0.0141,-0.0174,-0.0165,-0.0189,-0.016,-0.0168,-0.0167,-0.0156,-0.0145,-0.0159,-0.016,-0.0145,-0.0145,-0.0145,-0.0145,0,-0.0225,-0.0204,-0.0156,-0.0098,-0.0054,-0.0032,-0.0016,-0.0024,-0.0022,-0.0046,-0.0097,-0.0142,-0.0168,-0.0183,-0.0217,-0.0198,-0.018,-0.0139,-0.0139,-0.0138,-0.0156,-0.0143,-0.0143,0,0,0,0,0,-0.0222,-0.0206,-0.0164,-0.0097,-0.006,-0.0033,-0.0028,-0.0026,-0.0038,-0.0066,-0.0061,-0.0117,-0.0142,-0.0196,-0.0172,-0.0227,-0.0186,-0.0199,-0.014,-0.015,-0.0149,-0.0174,0,0,0,0,0,0,-0.0222,-0.0198,-0.0173,-0.0114,-0.0069,-0.0036,-0.0029,-0.0039,-0.0055,-0.0067,-0.0093,-0.009,-0.0135,-0.0143,-0.0166,-0.0171,-0.0124,-0.0218,-0.0217,-0.015,-0.0149,-0.0149,-0.0174,0,0,0,0,0]},{"header":{"parameterUnit":"m.s-1","parameterCategory":2,"la1":30.2991,"la2":30.254,"lo1":-89.0895,"lo2":-89.0444,"dy":0.0017,"dx":0.0017,"nx":28,"ny":28,"refTime":"2025-07-03T21:00:00:Z","depth":"4","parameterNumber":3,"parameterNumberName":"V-component_of_CURRENTS"},"data":[0,0,0,0,0,0,0,0,0,0,0,0,0,0,0,0,0,0,0,0,0,0,0,0,0,0,0,0,0,0,0,0,0,0,0,0,0,0,0,0,0,0,0,0,0,0,0,0,0,0,0,0,0,0,0,0,0,0,0.0146,0.0146,0,0.0132,0.0132,0.0132,0.0094,0.0093,0.0092,0.0091,0.0034,0.0033,0.0032,0,0,0,0,0,0,0,0,0,0,0,0,0,0.0193,0.0192,0.0146,0.0146,0.0145,0.0132,0.0132,0.0132,0.0094,0.0092,0.0091,0.009,0.0034,0.0033,0.0032,0,0,0,0,0,0,0,0,0,0,0,0,0,0.0177,0.0192,0.0146,0.0123,0.0121,0.0132,0.0132,0.0132,0.0094,0.0092,0.0091,0.009,0.0034,0.0033,0.0032,0.0056,0,0,0.0029,0.0029,0,0,0,0,0,0,0,0,0.0178,0.0175,0.0127,0.0125,0.0122,0.0111,0.0127,0.0104,0.0094,0.0106,0.0091,0.0089,0.0055,0.0053,0.0056,0.0053,0.0051,0.0029,0.0029,0.0028,0.0028,0,0,0,0,0,0,0,0.0179,0.0176,0.0142,0.0127,0.0124,0.0132,0.0128,0.0123,0.009,0.0105,0.0102,0.0098,0.0054,0.0058,0.0055,0.005,0.0029,0.0029,0.0028,0.0028,-0.0016,-0.0017,0,0,0,0,0,0,0.0176,0.0177,0.0143,0.0142,0.0145,0.0132,0.0127,0.0118,0.0091,0.0085,0.0099,0.0096,0.006,0.0056,0.0052,0.0005,0.0028,0.0028,0.0027,-0.0015,-0.0016,-0.0017,0,0,0,0,0,0,0.0177,0.0173,0.0143,0.0158,0.0154,0.0132,0.0122,0.0118,0.0094,0.0086,0.008,0.0075,0.0058,0.0054,0.0028,0.0005,0.0027,0.0026,-0.0015,-0.0016,-0.0016,-0.0042,0,0,0,0,0,0,0.0178,0.0173,0.0168,0.0157,0.0153,0.0139,0.0123,0.0119,0.0094,0.0089,0.0064,0.0059,0.0057,0.003,0.0027,0.0004,0.0026,-0.0014,-0.0015,-0.0016,-0.004,-0.0044,-0.0046,0,0,0,0,0,0.018,0.0192,0.0168,0.0163,0.0146,0.0139,0.0138,0.0119,0.0094,0.0089,0.0066,0.0058,0.002,0.0029,0.0026,0.0002,-0.0013,-0.0015,-0.0016,-0.0039,-0.0043,-0.0046,0,0,0,0,0,0,0.0221,0.0189,0.0162,0.0164,0.0141,0.0131,0.0134,0.0106,0.0086,0.0072,0.0056,0.005,0.0017,0.0017,0.0027,-0.0013,0.0,-0.0002,-0.0016,-0.002,-0.0023,-0.0021,0.0025,0,0,0,0,0,0.0223,0.0218,0.0182,0.0185,0.0171,0.0142,0.0135,0.0111,0.0091,0.0079,0.0055,0.0032,0.0017,0.0003,-0.0008,-0.0025,-0.0013,-0.0043,-0.0047,-0.0049,-0.0049,-0.0048,-0.0051,-0.0021,-0.0021,-0.0021,0,0,0.0244,0.0224,0.0222,0.0192,0.0175,0.0157,0.0135,0.0116,0.0093,0.0078,0.0041,0.002,0.001,-0.0013,-0.0028,-0.0021,-0.005,-0.0051,-0.0053,-0.0051,-0.005,-0.0053,-0.0055,-0.0022,-0.0022,-0.0022,0,0,0.028,0.0256,0.0253,0.0229,0.0189,0.0168,0.0152,0.0113,0.0087,0.0053,0.0031,-0.0004,-0.0027,-0.0042,-0.005,-0.0074,-0.0066,-0.0086,-0.0101,-0.01,-0.0103,-0.0105,-0.0085,-0.0085,-0.0088,-0.0088,-0.0088,0,0.0298,0.0276,0.0255,0.0238,0.0209,0.0166,0.0138,0.0123,0.0075,0.0046,0.0036,-0.0025,-0.0038,-0.0069,-0.0081,-0.0082,-0.0073,-0.0086,-0.0104,-0.0106,-0.0107,-0.0086,-0.0086,-0.0089,-0.0089,-0.0089,-0.0089,0,0.031,0.029,0.029,0.024,0.0218,0.019,0.0147,0.0112,0.0065,0.0035,-0.0021,-0.0039,-0.0076,-0.0091,-0.0093,-0.0121,-0.0107,-0.0107,-0.0093,-0.0112,-0.0088,-0.0087,-0.0091,-0.009,-0.009,-0.009,0,0,0.0331,0.03,0.0296,0.0254,0.0199,0.0174,0.0143,0.0084,0.0044,0.0003,-0.0048,-0.008,-0.0106,-0.0115,-0.0132,-0.0138,-0.014,-0.013,-0.013,-0.0108,-0.0126,-0.0144,-0.0144,-0.0145,-0.0146,-0.0146,-0.0102,0,0.0323,0.0298,0.028,0.023,0.0188,0.014,0.0112,0.0061,0.0016,-0.0032,-0.0065,-0.0101,-0.0107,-0.0131,-0.0141,-0.0148,-0.014,-0.0151,-0.0113,-0.0112,-0.0124,-0.0145,-0.0147,-0.0101,-0.0101,-0.01,-0.01,0,0.0306,0.0282,0.0248,0.0175,0.0154,0.0132,0.0044,0.0017,-0.0036,-0.0068,-0.0106,-0.0129,-0.0154,-0.0149,-0.0153,-0.0161,-0.0141,-0.0136,-0.0135,-0.0143,-0.013,-0.0081,-0.0098,-0.0098,-0.0099,-0.0099,-0.0099,0,0.0283,0.0241,0.0208,0.0184,0.012,0.009,0.0057,0.0001,-0.0032,-0.0076,-0.0105,-0.014,-0.0154,-0.0149,-0.0137,-0.0147,-0.0127,-0.0135,-0.0125,-0.0124,-0.0107,-0.0106,-0.0118,-0.0118,-0.0118,-0.0119,-0.0119,0,0.024,0.0209,0.0199,0.0169,0.0113,0.0078,0.0023,-0.0012,-0.0053,-0.0094,-0.0112,-0.0147,-0.0156,-0.0152,-0.0137,-0.0128,-0.0118,-0.0129,-0.0122,-0.0117,-0.0118,-0.0105,-0.0105,-0.0117,-0.0117,-0.0118,-0.0118,0,0.0203,0.0206,0.0158,0.0114,0.0101,0.0064,0.0018,-0.0023,-0.0045,-0.0093,-0.0102,-0.0144,-0.0155,-0.0144,-0.0132,-0.0126,-0.0111,-0.0096,-0.0074,-0.0065,-0.0106,-0.0107,-0.0103,-0.0104,-0.0104,-0.0104,-0.0105,0,0.0177,0.0159,0.0134,0.0116,0.0097,0.0055,0.0021,-0.0014,-0.0051,-0.0098,-0.0127,-0.0145,-0.0171,-0.016,-0.0149,-0.0112,-0.0106,-0.008,-0.0121,-0.0116,-0.0108,-0.0109,-0.0109,-0.0105,-0.0105,-0.0105,-0.0106,0,0.0114,0.0132,0.0101,0.0085,0.0057,0.001,-0.0032,-0.0055,-0.0101,-0.0108,-0.016,-0.0172,-0.0187,-0.0189,-0.0146,-0.0122,-0.0101,-0.0084,-0.0084,-0.0122,-0.0118,-0.0111,-0.011,-0.0107,-0.0107,-0.0107,-0.0106,0,0.008,0.0061,0.0057,0.0036,0.0014,-0.0033,-0.0058,-0.0106,-0.0137,-0.0176,-0.019,-0.0202,-0.0204,-0.0192,-0.0158,-0.0138,-0.0151,-0.0142,-0.0139,-0.0137,-0.017,-0.0171,-0.0174,0,0,0,0,0,0.0041,0.0029,0.0005,-0.0026,-0.0039,-0.0046,-0.0097,-0.0121,-0.0144,-0.0186,-0.0189,-0.0204,-0.02,-0.02,-0.0188,-0.0174,-0.0143,-0.0159,-0.0129,-0.0114,-0.0113,-0.015,0,0,0,0,0,0,0.0011,-0.0004,-0.0008,-0.0054,-0.0069,-0.0108,-0.013,-0.0157,-0.0184,-0.0194,-0.0195,-0.0186,-0.0182,-0.0196,-0.0178,-0.0174,-0.0154,-0.015,-0.015,-0.0115,-0.0114,-0.0113,-0.015,0,0,0,0,0]}]]